Location: Del Amo
(33.8464°N, 118.2104°W)
Time: 22:09:42
(UTC+00:00)

UNISAT 6 - Pass Details

Date: 14 December 2025
Orbit: 575 x 639 km, 97.8° (Epoch: 19 January)

Event Time Altitude Azimuth Distance (km) Brightness Sun altitude
Rises 01:07:15 0° 348° (NNW) 2,949 ? -5.0°
Reaches altitude 10° 01:10:33 10° 321° (NW) 2,038 ? -5.6°
Maximum altitude 01:12:37 13° 293° (WNW) 1,826 ? -6.0°
Drops below altitude 10° 01:14:42 10° 265° (W) 2,030 ? -6.4°
Sets 01:17:59 0° 239° (WSW) 2,929 ? -7.0°
